sat.trackr.live / text

‹ back to catalog

LUOJIA-1 01

NORAD 43485 · 2018-048B

PAYLOAD ACTIVE UNKNOWN

§ Identity

Operator
Country
PRC
Launch date
2018-06-02
Launch site
JSC
Launch vehicle
Mass (kg)
RCS (m²)

External: N2YO · Heavens-Above · Gunter

§ Orbital elements

Epoch: 2026-05-25T03:56:47.677344Z

Period
96.83 min
Inclination
97.8095°
Eccentricity
0.0008771
Mean motion
14.87180327 rev/d
Perigee alt
600.6 km
Apogee alt
612.9 km
Semi-major
6,984.9 km
B*
1.7460e-4
RAAN
223.7228°
Arg perigee
188.2838°
Mean anomaly
171.8234°
Rev number
43,079

§ Raw data

LUOJIA-1 011 43485U 18048B   26145.16444071  .00001517  00000+0  17460-3 0  99942 43485  97.8095 223.7228 0008771 188.2838 171.8234 14.87180327430791

JSON: /api/v1/satellites/43485 · /tle

For live sub-satellite position, see the globe view (requires WebGL).

§ Visibility from observer

Set your observer location to see the next 7 days of passes ≥ 10°. The values pass through the URL so the page stays shareable.

No JS? Fill the form by hand. The geolocation button needs JavaScript.

§ Radio — SatNOGS DB

ModeDescriptionDownlinkUplink
FM Mode V Downlink 148.375 MHz
GMSK Telem 437.250 MHz

2 transmitters · refreshed weekly from db.satnogs.org